This demonstration page uses our WeatherBlox Daily Observations layout. Learn more.

Left ArrowRight Arrow

47.50024, -111.30081

Hourly Observations for January 11, 2016

Temp ( °F °C ) Dew Point ( °F °C ) Humidity (%) Winds ( mph kmh ) Pressure ( in mb ) Visibility ( mi km ) Precip ( " mm )
12:53 am 00:53 Clear 22 -5.6 13 -10.6 68 68 SSW 16 26 30.21 1023 10 16 0.00 0.00
1:53 am 01:53 Clear 23 -5 14 -10 68 68 SSW 17 28 30.19 1023 10 16 0.00 0.00
2:53 am 02:53 Clear 24 -4.4 14 -10 65 65 SSW 18 30 30.18 1022 10 16 0.00 0.00
3:53 am 03:53 Clear 21 -6.1 13 -10.6 71 71 SSW 15 24 30.19 1022 10 16 0.00 0.00
4:53 am 04:53 Clear 25 -3.9 14 -10 63 63 SW 21 33 30.15 1021 10 16 0.00 0.00
5:53 am 05:53 Clear 24 -4.4 13 -10.6 62 62 SW 17 28 30.16 1022 10 16 0.00 0.00
6:53 am 06:53 Clear 19 -7.2 10 -12.2 68 68 SW 14 22 30.19 1022 10 16 0.00 0.00
7:53 am 07:53 Clear 23 -5 12 -11.1 63 63 SW 17 28 30.19 1022 10 16 0.00 0.00
8:53 am 08:53 Sunny 22 -5.6 11 -11.7 63 63 SW 15 24 30.19 1023 10 16 0.00 0.00
9:53 am 09:53 Sunny 26 -3.3 13 -10.6 57 57 SW 16 26 30.19 1023 10 16 0.00 0.00
10:53 am 10:53 Sunny 28 -2.2 14 -10 56 56 SSW 17 28 30.18 1022 10 16 0.00 0.00
11:53 am 11:53 Sunny 30 -1.1 15 -9.4 54 54 SSW 18 30 30.14 1021 10 16 0.00 0.00
12:53 pm 12:53 Sunny 31 -0.6 15 -9.4 52 52 SW 15 24 30.13 1020 10 16 0.00 0.00
1:53 pm 13:53 Sunny 30 -1.1 16 -8.9 56 56 SW 13 20 30.12 1020 10 16 0.00 0.00
2:53 pm 14:53 Sunny 25 -3.9 12 -11.1 58 58 SW 12 19 30.14 1021 10 16 0.00 0.00
3:53 pm 15:53 Sunny 31 -0.6 13 -10.6 47 47 SW 16 26 30.14 1021 10 16 0.00 0.00
4:53 pm 16:53 Sunny 26 -3.3 12 -11.1 55 55 NNW 6 9 30.15 1021 10 16 0.00 0.00
5:53 pm 17:53 Clear 25 -3.9 12 -11.1 58 58 NE 3 6 30.16 1021 10 16 0.00 0.00
6:53 pm 18:53 Clear 23 -5 11 -11.7 60 60 E 5 7 30.19 1022 10 16 0.00 0.00
7:53 pm 19:53 Clear 17 -8.3 7 -13.9 64 64 ESE 3 6 30.19 1022 10 16 0.00 0.00
8:53 pm 20:53 Clear 24 -4.4 7 -13.9 48 48 WSW 3 6 30.16 1021 10 16 0.00 0.00
9:53 pm 21:53 Clear 23 -5 10 -12.2 57 57 SW 18 30 30.14 1021 10 16 0.00 0.00
10:53 pm 22:53 Clear 31 -0.6 16 -8.9 54 54 SW 25 41 30.10 1019 10 16 0.00 0.00
11:53 pm 23:53 Clear 30 -1.1 19 -7.2 64 64 SW 25 41 30.10 1019 10 16 0.00 0.00

Powered by AerisWeather